Temp
11 11 11 11 10 10 10 10 10 10 10 10 10 10 10 10 10 10 10 10 10 10 10 10 10 10 10 10 10 10 10 10 10 10 10 10 10 10 10 10 10 10
11 11 11 11 11 11 10 10 10 10 10 10 10 10 10 10 10 10 10 10 10 10 10 10 10 10 10 11 11 10 10 10 10 11 11 11 11 11 10 10 10 10
11 11 11 11 11 11 11 11 10 10 10 10 10 10 10 10 10 11 11 11 11 11 10 10 10 10 10 11 11 11 11 11 11 11 11 11 11 11 11 10 10 10
12 11 11 11 11 11 11 11 11 10 10 10 10 10 10 10 10 11 11 11 11 11 11 11 11 11 11 11 11 11 11 11 11 11 11 11 11 11 11 11 10 10
12 12 11 11 11 11 11 11 11 11 11 11 11 10 11 11 11 11 11 11 11 11 11 11 11 11 11 11 11 11 11 11 11 11 11 11 11 11 11 11 11 11
12 12 12 11 11 11 11 11 11 11 11 11 11 11 11 11 11 10 11 11 11 11 11 11 11 11 11 11 11 11 11 11 11 11 11 11 11 11 11 11 11 11
12 12 12 12 11 11 12 11 11 11 11 11 11 11 11 11 11 11 11 11 11 11 11 11 11 11 11 11 11 11 11 11 11 11 11 11 11 11 11 11 11 11
12 12 12 12 12 12 12 12 11 11 11 11 11 11 11 11 11 11 11 11 11 11 12 12 12 11 11 11 11 11 11 11 11 11 11 11 12 12 12 11 11 11
12 12 12 12 12 12 12 12 12 12 12 12 11 11 11 11 11 11 11 11 11 12 12 12 12 11 11 11 11 11 11 10 11 11 11 12 12 12 12 12 12 11
12 12 12 12 12 12 12 12 12 12 12 12 12 11 11 11 11 11 11 11 11 12 12 12 12 12 12 11 11 11 11 11 11 11 11 12 12 12 12 12 12 12
13 13 12 12 12 12 12 12 12 12 12 12 12 12 11 11 11 11 11 12 12 12 12 12 12 12 12 12 11 11 11 11 11 11 11 12 12 12 12 12 12 12
13 13 13 13 13 13 12 12 12 12 12 12 12 12 12 12 12 12 12 12 12 12 12 12 12 12 12 12 12 11 11 11 11 11 11 12 12 12 12 12 12 12
13 13 13 13 13 13 13 12 12 12 12 12 12 12 12 12 12 12 12 12 12 12 12 12 12 12 12 12 12 11 11 11 11 11 11 11 12 12 12 12 12 12
13 13 13 13 13 13 13 13 12 12 12 12 12 12 12 12 12 12 12 12 12 12 12 12 12 12 12 12 12 12 11 11 11 11 11 11 11 12 12 12 12 12
13 13 13 13 13 13 13 13 13 13 12 12 12 12 12 12 12 12 12 12 12 13 13 13 12 12 12 12 12 12 11 11 11 11 11 11 11 11 11 11 11 12
13 13 13 13 13 13 13 13 13 13 13 13 13 12 12 12 12 12 12 13 13 13 13 13 13 13 13 12 12 12 11 11 11 11 11 11 11 11 11 11 11 12
13 13 13 13 13 13 13 13 13 13 13 13 13 13 13 13 12 13 13 13 13 13 13 13 13 13 13 12 12 12 12 12 12 12 12 12 12 12 12 12 12 12
13 13 13 13 13 13 13 13 13 13 13 13 13 13 13 13 13 13 13 13 13 13 13 13 13 13 13 12 12 12 12 12 12 12 12 12 12 12 12 12 12 12
13 13 13 13 13 13 13 13 13 13 13 13 13 13 13 13 13 13 13 13 13 13 13 13 13 13 13 13 12 12 12 12 12 12 12 12 12 12 12 12 12 12
13 13 13 13 13 13 13 13 13 13 14 14 14 14 14 14 13 13 13 13 13 13 13 13 13 13 13 13 12 12 12 12 12 12 12 12 12 12 12 12 12 12
14 13 13 13 13 13 13 13 14 14 14 14 14 14 14 14 14 14 14 13 13 13 13 13 13 13 13 13 13 12 12 12 12 12 12 13 13 13 13 13 13 13
14 13 13 13 13 13 14 14 14 14 14 14 14 14 14 14 14 14 14 14 14 14 13 13 13 13 13 13 13 13 13 13 13 13 13 13 13 13 13 13 13 13
14 14 14 13 14 14 14 14 14 14 14 14 14 14 14 14 14 14 14 14 14 14 14 14 14 13 13 13 13 13 13 13 13 13 13 13 13 13 13 13 13 13
14 14 14 14 14 14 14 14 14 14 14 14 14 14 14 14 14 14 14 14 14 14 14 14 14 14 13 13 13 13 13 13 13 13 13 13 13 13 13 13 13 13
14 14 14 14 14 14 14 14 14 14 14 14 14 14 14 14 14 14 14 14 14 14 14 14 14 14 14 13 13 13 13 13 13 13 14 14 14 14 14 14 14 13
15 15 15 15 15 14 14 14 14 14 14 14 14 14 14 14 14 14 14 14 14 14 14 14 14 14 14 14 14 14 14 14 14 14 14 14 14 14 14 14 14 14
Height
3211 3213 3215 3217 3219 3221 3223 3225 3227 3229 3231 3233 3234 3236 3238 3239 3240 3241 3242 3243 3244 3245 3246 3247 3248 3249 3249 3250 3251 3251 3252 3252 3253 3254 3254 3255 3255 3255 3256 3256 3256 3256
3209 3211 3213 3215 3217 3219 3221 3223 3225 3227 3229 3231 3232 3234 3235 3237 3238 3239 3240 3241 3242 3243 3244 3245 3246 3247 3248 3249 3250 3250 3251 3252 3252 3253 3254 3254 3255 3255 3256 3256 3257 3257
3206 3209 3211 3213 3215 3217 3219 3221 3223 3225 3227 3229 3230 3232 3233 3234 3235 3237 3238 3239 3240 3241 3242 3243 3245 3246 3247 3248 3248 3249 3250 3251 3251 3252 3253 3254 3255 3255 3256 3256 3257 3257
3204 3206 3209 3211 3213 3216 3217 3219 3221 3223 3225 3226 3228 3230 3231 3232 3233 3234 3236 3237 3238 3239 3240 3242 3243 3244 3245 3246 3247 3248 3249 3250 3250 3251 3252 3253 3254 3255 3256 3256 3257 3257
3202 3205 3207 3209 3211 3213 3215 3217 3219 3221 3223 3225 3227 3228 3229 3230 3231 3232 3234 3235 3236 3238 3239 3240 3241 3242 3243 3244 3245 3246 3247 3248 3249 3250 3251 3252 3253 3254 3255 3256 3257 3257
3200 3202 3205 3207 3209 3211 3213 3215 3217 3219 3221 3223 3225 3226 3227 3228 3229 3230 3232 3233 3234 3236 3237 3238 3239 3240 3241 3242 3243 3244 3245 3246 3247 3248 3249 3251 3252 3253 3254 3255 3256 3256
3198 3200 3202 3204 3206 3208 3211 3213 3215 3217 3219 3221 3222 3224 3225 3226 3227 3229 3230 3231 3232 3234 3235 3236 3237 3238 3239 3239 3240 3242 3243 3244 3245 3246 3248 3249 3251 3252 3253 3254 3255 3255
3195 3198 3200 3202 3204 3206 3208 3210 3212 3214 3216 3218 3220 3222 3223 3224 3225 3227 3228 3229 3230 3231 3233 3234 3235 3236 3236 3237 3238 3239 3240 3241 3243 3244 3245 3247 3248 3250 3251 3252 3253 3254
3193 3195 3197 3200 3202 3204 3206 3208 3210 3212 3214 3216 3218 3220 3221 3222 3224 3225 3226 3227 3228 3229 3231 3232 3232 3233 3234 3235 3236 3237 3238 3239 3240 3241 3243 3244 3246 3248 3249 3250 3251 3252
3190 3193 3195 3197 3199 3201 3204 3206 3208 3210 3212 3214 3216 3217 3219 3220 3222 3223 3224 3225 3226 3227 3229 3230 3230 3231 3232 3233 3234 3235 3236 3237 3238 3239 3240 3242 3244 3246 3247 3248 3249 3251
3187 3190 3192 3194 3197 3199 3202 3204 3206 3207 3210 3212 3213 3215 3217 3218 3220 3221 3222 3223 3224 3226 3227 3228 3229 3229 3230 3231 3232 3233 3233 3234 3235 3237 3238 3240 3242 3243 3245 3246 3247 3249
3184 3187 3189 3192 3194 3197 3199 3201 3203 3205 3207 3209 3211 3213 3215 3216 3217 3219 3220 3221 3222 3224 3225 3226 3227 3227 3228 3229 3230 3231 3231 3232 3233 3235 3236 3238 3240 3241 3243 3244 3245 3247
3181 3184 3187 3189 3192 3194 3197 3199 3201 3203 3205 3207 3209 3210 3212 3214 3215 3216 3218 3219 3220 3221 3222 3224 3225 3225 3226 3227 3228 3229 3230 3231 3232 3233 3235 3236 3238 3239 3240 3242 3243 3244
3179 3181 3184 3187 3189 3191 3194 3196 3198 3200 3202 3204 3206 3208 3210 3211 3213 3214 3215 3217 3218 3219 3220 3221 3222 3223 3224 3225 3227 3227 3229 3230 3231 3232 3233 3235 3236 3237 3238 3239 3241 3242
3176 3179 3181 3184 3186 3188 3191 3193 3195 3197 3200 3202 3203 3205 3207 3209 3210 3212 3213 3214 3215 3216 3218 3218 3220 3221 3222 3224 3225 3226 3227 3228 3230 3231 3232 3233 3234 3235 3236 3237 3239 3240
3174 3176 3179 3181 3183 3185 3188 3190 3192 3194 3197 3199 3201 3203 3204 3206 3208 3209 3210 3211 3213 3214 3215 3216 3217 3219 3221 3222 3223 3225 3226 3227 3228 3229 3231 3232 3233 3234 3235 3236 3237 3238
3171 3174 3176 3178 3180 3183 3185 3187 3189 3191 3194 3196 3198 3200 3202 3203 3205 3206 3207 3209 3210 3211 3212 3214 3215 3217 3219 3220 3221 3223 3224 3225 3226 3228 3229 3230 3231 3232 3233 3234 3235 3236
3168 3171 3173 3175 3177 3179 3182 3184 3186 3188 3191 3193 3195 3197 3199 3200 3202 3203 3205 3206 3207 3209 3210 3211 3213 3215 3217 3218 3219 3221 3222 3223 3225 3226 3227 3227 3229 3230 3231 3232 3233 3233
3165 3168 3170 3172 3174 3177 3179 3181 3183 3185 3187 3190 3192 3194 3196 3197 3198 3200 3202 3203 3204 3206 3208 3209 3211 3213 3214 3216 3217 3219 3220 3221 3222 3223 3224 3225 3226 3227 3228 3229 3230 3231
3162 3165 3168 3170 3172 3174 3176 3178 3180 3182 3184 3186 3189 3190 3192 3193 3195 3197 3199 3200 3202 3203 3205 3206 3208 3210 3212 3214 3215 3217 3218 3219 3220 3221 3221 3222 3223 3224 3225 3226 3227 3228
3160 3162 3165 3167 3169 3171 3173 3175 3177 3179 3181 3183 3185 3187 3188 3190 3192 3194 3196 3197 3199 3200 3202 3203 3205 3208 3209 3211 3213 3214 3215 3216 3217 3218 3219 3220 3221 3222 3223 3224 3224 3225
3157 3160 3162 3165 3167 3168 3170 3172 3174 3176 3178 3180 3182 3183 3185 3187 3189 3191 3192 3194 3196 3197 3198 3200 3203 3205 3206 3208 3210 3211 3212 3213 3214 3215 3216 3217 3218 3219 3220 3221 3221 3222
3155 3157 3160 3162 3164 3165 3167 3169 3171 3173 3175 3177 3179 3180 3182 3184 3186 3187 3189 3191 3192 3193 3195 3197 3199 3201 3203 3205 3206 3207 3208 3209 3210 3212 3212 3213 3215 3216 3217 3217 3218 3219
3153 3155 3157 3159 3161 3163 3165 3167 3169 3171 3173 3174 3176 3177 3179 3181 3183 3184 3186 3187 3188 3189 3191 3193 3196 3197 3199 3201 3202 3204 3205 3206 3207 3208 3209 3210 3212 3213 3214 3214 3215 3216
3150 3153 3155 3157 3159 3161 3163 3165 3167 3169 3170 3172 3173 3175 3177 3178 3180 3181 3182 3183 3185 3186 3188 3190 3191 3193 3195 3197 3199 3200 3201 3202 3203 3204 3205 3206 3208 3209 3210 3211 3212 3213
3147 3150 3152 3154 3156 3158 3160 3162 3164 3166 3168 3169 3171 3172 3174 3175 3177 3178 3179 3180 3182 3183 3185 3186 3188 3189 3191 3193 3195 3196 3197 3198 3199 3200 3201 3203 3205 3206 3207 3207 3208 3209
Wind_Speed
29 30 30 30 30 29 28 28 27 27 26 25 23 22 20 18 17 16 15 15 14 13 12 11 11 11 11 11 10 10 9 9 9 7 6 4 3 2 2 2 3 4
29 29 30 31 31 30 29 29 29 28 28 27 25 24 22 20 19 17 16 16 16 15 14 13 13 12 12 12 12 12 11 11 11 10 8 7 5 4 4 4 5 6
29 29 30 30 31 30 30 30 29 29 29 28 27 25 24 22 20 19 18 17 17 16 16 15 15 14 13 13 13 13 13 13 13 13 11 9 8 7 6 7 8 8
30 29 29 29 30 30 31 30 30 30 30 29 28 26 25 23 22 21 19 18 17 17 17 16 16 15 15 14 14 14 15 15 15 15 14 12 11 10 9 9 10 10
31 30 29 29 30 30 31 31 31 31 30 29 28 27 26 24 23 22 20 19 18 17 17 17 16 16 15 15 15 15 16 17 17 17 17 15 14 13 12 12 12 12
31 31 30 30 30 30 31 31 31 30 30 29 29 28 26 25 24 23 21 20 18 17 17 16 16 15 15 15 15 15 17 18 19 19 19 18 17 16 15 14 14 13
33 32 31 31 31 31 31 31 31 31 30 29 29 28 27 26 26 24 23 22 20 18 17 17 16 15 15 15 16 15 17 19 21 21 21 21 20 19 18 17 17 16
33 33 32 32 32 32 32 32 31 31 30 30 29 28 28 28 27 26 25 23 22 20 18 17 16 16 15 16 16 16 17 19 21 23 23 23 23 22 21 20 20 18
34 33 33 33 33 33 32 32 32 31 31 30 29 29 29 29 28 27 26 25 23 21 19 18 17 16 16 15 15 16 17 18 21 24 25 25 26 25 24 23 23 21
34 34 34 34 34 34 33 32 32 32 31 30 30 30 30 29 29 28 27 26 25 22 20 18 17 17 16 16 15 16 17 18 20 23 25 26 27 27 27 26 25 24
34 34 35 35 35 34 33 33 32 32 31 30 30 30 30 30 29 28 28 27 25 22 20 19 18 17 17 16 16 16 16 17 19 21 23 25 26 28 28 28 27 26
34 34 35 35 35 34 33 33 33 32 31 31 31 30 29 29 29 28 27 26 24 22 21 19 19 19 18 17 17 17 17 17 18 18 20 22 24 26 28 29 29 28
34 33 34 34 35 35 34 34 34 33 32 32 31 30 29 29 29 28 27 25 24 23 21 20 20 20 20 19 18 18 18 17 17 16 17 18 20 23 25 27 28 28
34 33 33 33 34 35 35 35 35 34 33 33 32 31 30 29 29 28 26 25 25 23 22 21 21 22 22 20 19 19 18 17 16 16 15 15 17 19 21 23 24 25
34 34 33 32 33 34 35 35 35 35 34 33 33 32 31 30 29 28 27 26 25 24 23 22 22 23 23 21 20 20 19 18 17 16 15 15 15 16 17 18 19 20
33 33 33 33 33 33 33 34 34 34 34 34 33 32 32 31 30 29 28 27 26 25 24 22 22 22 22 22 22 21 20 19 19 18 17 17 17 17 17 16 16 17
31 31 32 33 33 33 32 32 33 33 34 33 33 32 32 31 31 30 29 27 26 26 25 23 21 21 22 23 23 22 22 21 20 19 19 19 19 19 18 18 18 18
31 31 31 31 32 33 32 32 32 32 32 32 32 32 31 31 31 30 29 27 27 26 25 24 22 21 22 23 24 23 22 22 21 20 20 20 20 19 19 20 20 21
34 32 30 30 30 31 31 31 31 30 30 30 30 31 31 31 32 31 29 29 28 27 25 25 23 22 23 23 24 24 23 22 21 21 21 21 21 20 20 21 21 22
36 34 31 29 28 29 30 30 29 29 28 29 29 30 31 32 32 31 30 30 29 28 27 26 25 24 24 24 25 25 25 24 23 23 23 23 22 22 22 22 23 23
33 32 30 28 27 27 28 28 28 28 28 28 28 29 30 31 31 31 31 31 31 30 29 28 26 25 25 26 26 26 26 27 26 26 25 25 24 24 24 24 24 24
30 30 28 27 26 27 28 28 28 28 28 28 28 28 29 29 30 30 31 31 31 31 31 30 28 26 26 26 27 27 28 29 29 28 28 27 25 25 25 25 25 24
26 26 26 25 25 26 27 27 27 27 27 27 27 27 27 27 27 28 28 28 29 31 31 30 29 28 27 27 27 29 30 30 30 29 29 28 27 26 26 25 25 24
24 24 24 24 24 24 24 24 24 24 24 24 25 25 24 24 24 24 25 25 27 28 28 27 27 28 28 28 28 29 30 31 31 30 30 29 27 26 26 26 25 23
27 26 26 25 25 25 24 24 23 23 23 23 23 23 23 23 23 23 23 24 24 24 24 25 26 27 28 29 29 30 31 31 31 31 30 29 28 27 27 26 25 24
31 30 29 28 28 28 27 27 26 26 25 25 25 24 23 23 23 23 23 23 23 23 23 24 25 26 27 28 29 30 31 31 31 31 31 29 28 28 27 27 26 25
Wind_Direction
214 214 214 213 213 213 212 213 214 215 216 218 220 223 224 227 229 228 226 226 227 228 232 235 236 235 235 233 232 233 236 240 242 238 233 234 227 212 196 181 183 183
216 216 216 215 214 214 214 214 215 216 216 217 219 221 223 226 230 232 230 228 228 229 233 236 236 236 236 234 232 231 232 236 239 237 232 229 224 214 202 186 177 175
217 217 218 217 216 215 215 215 216 217 217 217 218 220 223 225 228 232 232 231 231 231 233 236 237 237 237 236 234 231 230 231 235 235 231 227 223 215 204 189 179 177
216 218 218 218 218 216 216 216 216 217 218 218 218 220 223 224 227 230 232 233 233 234 234 236 237 238 240 240 237 232 230 228 230 231 229 226 222 216 207 195 188 185
215 218 219 219 218 217 216 215 216 218 219 219 219 221 222 224 226 229 232 234 234 234 235 236 238 240 242 243 240 235 231 228 227 228 227 224 222 217 210 202 197 195
214 216 218 219 218 217 216 215 215 217 219 220 220 221 222 224 226 228 231 234 235 234 236 239 242 243 244 243 240 234 230 228 226 226 225 223 221 218 212 207 205 205
214 215 216 217 217 216 215 215 215 216 217 219 219 220 222 224 227 229 231 234 235 236 237 241 244 244 244 242 237 231 227 225 224 224 223 222 221 218 214 212 211 212
214 215 216 216 216 215 214 214 214 215 216 217 218 219 222 224 227 229 231 234 236 237 237 240 243 243 243 241 236 230 224 222 222 222 221 220 219 218 216 215 215 216
215 216 216 217 216 216 215 214 215 215 216 216 217 219 221 224 226 228 232 235 237 237 237 238 239 239 240 239 235 229 225 221 220 221 221 219 218 217 218 218 217 219
216 216 216 217 217 216 215 215 216 216 216 216 217 219 221 223 226 228 231 235 237 239 238 237 236 235 237 237 233 228 225 222 221 221 221 220 218 217 218 220 220 221
218 217 217 218 218 217 217 217 217 217 218 218 218 220 221 223 226 229 232 236 239 240 240 238 234 231 232 232 229 224 220 220 221 221 221 221 220 219 220 222 223 224
220 219 219 219 219 219 219 219 219 219 220 220 221 222 223 225 228 231 234 238 240 242 241 238 233 229 228 227 223 219 215 215 218 219 221 222 222 221 222 224 227 228
222 222 221 220 221 221 221 221 221 222 222 222 224 225 226 228 230 233 237 238 239 241 240 237 231 227 225 223 219 215 213 212 214 216 218 220 222 223 225 227 230 232
222 224 224 223 222 222 222 222 223 224 224 224 225 227 228 230 232 236 238 238 238 238 238 235 230 226 224 222 217 213 211 210 209 210 211 215 219 222 225 229 232 235
222 224 224 224 224 223 223 224 225 225 226 226 226 227 229 230 233 236 237 237 236 236 237 235 230 226 224 221 217 213 210 208 206 204 204 207 212 217 221 225 229 233
221 223 224 225 225 225 225 225 226 227 228 228 228 228 229 230 232 234 236 236 235 235 236 236 232 228 225 222 218 213 210 208 207 205 205 207 210 214 218 222 227 231
219 221 223 225 226 226 227 227 228 229 229 230 230 229 230 230 231 234 235 235 235 235 236 237 235 231 226 224 221 216 212 211 209 209 210 212 214 217 220 224 229 233
219 221 222 223 224 225 226 227 229 230 231 231 231 230 230 230 231 233 234 235 236 237 237 238 238 234 229 226 223 220 217 215 214 214 216 219 222 224 226 230 233 237
222 223 223 223 222 223 224 226 228 230 231 231 232 231 230 230 231 231 232 234 237 238 238 239 239 236 232 229 226 224 223 222 222 222 224 227 230 232 235 237 239 242
223 224 224 223 221 221 222 224 227 229 230 231 231 231 230 230 230 231 232 235 237 238 239 239 238 236 234 233 230 227 227 228 229 230 231 233 236 239 241 243 245 247
220 221 221 220 218 218 220 222 225 228 229 230 230 230 231 232 232 233 234 236 237 239 240 240 239 236 234 233 232 230 230 232 233 234 236 237 240 243 245 247 249 249
217 218 219 218 217 218 219 221 223 225 227 229 230 230 232 233 233 234 236 237 238 239 240 240 239 238 236 234 232 230 231 233 234 236 239 241 243 246 248 248 248 250
211 213 214 215 215 216 218 219 221 223 225 227 229 231 232 234 235 237 238 238 239 240 241 241 240 239 237 235 232 231 231 233 235 238 242 245 247 248 248 248 248 248
206 208 209 212 213 214 216 217 219 220 222 224 227 230 232 234 235 236 237 237 238 239 239 239 238 237 235 234 232 232 232 233 236 239 243 246 248 248 248 248 247 244
210 212 213 215 218 219 221 222 222 222 224 225 227 229 230 231 232 233 234 234 235 236 236 235 234 232 231 231 230 230 231 233 236 239 243 245 247 247 248 249 247 240
214 216 218 221 223 224 225 226 227 228 229 229 230 230 230 230 231 232 232 233 234 234 233 232 231 229 228 228 228 228 230 232 235 239 242 245 246 248 248 249 247 240